Location: Cicognara
(44.9500°N, 10.4667°E)
Time: 21:34:54
(UTC+00:00)

Geosat - Pass Details

Date: 20 June 2021
Orbit: 762 x 766 km, 108.0° (Epoch: 23 July)

Event Time Altitude Azimuth Distance (km) Brightness Sun altitude
Exits shadow 20:24:37 14° 128° (SE) 2,039 5.6 -10.8°
Maximum altitude 20:28:47 51° 56° (NE) 961 4.5 -11.3°
Drops below altitude 10° 20:33:38 10° 342° (NNW) 2,311 7.7 -11.8°
Sets 20:35:58 0° 337° (NNW) 3,241 8.9 -12.1°
